GW1885 Weather Reports


time (UTC)temp
C
wind
direction
speed
KPH
gust
KPH
rain 1hr
cm
rain 24hr
cm
rain mn
cm
humidity
%
barometer
mb
20260508034005 5 358 0.0 3.2 0.00 0.00 0.00 92 1019.9
20260508033525 5 2 0.0 3.2 0.00 0.00 0.00 92 1019.9
20260508033026 5 355 0.0 1.6 0.00 0.00 0.00 92 1019.8
20260508032505 5 346 0.0 1.6 0.00 0.00 0.00 93 1019.9
20260508032004 5 339 0.0 1.6 0.00 0.00 0.00 92 1019.8
20260508031505 5 329 1.6 3.2 0.00 0.00 0.00 93 1019.8
20260508031005 5 325 1.6 4.8 0.00 0.00 0.00 92 1019.7
20260508030504 5 332 1.6 6.4 0.00 0.00 0.00 92 1019.6
20260508030004 5 341 1.6 6.4 0.00 0.00 0.00 92 1019.7
20260508025526 5 354 1.6 3.2 0.00 0.00 0.00 92 1019.7
20260508025025 5 356 1.6 3.2 0.00 0.00 0.00 92 1019.6
20260508024504 5 355 1.6 6.4 0.00 0.00 0.00 92 1019.6
20260508024004 5 359 1.6 6.4 0.00 0.00 0.00 92 1019.6
20260508023505 5 359 1.6 4.8 0.00 0.00 0.00 93 1019.5
20260508023004 5 356 1.6 6.4 0.00 0.00 0.00 93 1019.5
20260508022525 5 349 1.6 6.4 0.00 0.00 0.00 93 1019.3
20260508022004 5 328 0.0 4.8 0.00 0.00 0.00 93 1019.8
20260508021504 5 327 0.0 4.8 0.00 0.00 0.00 93 1019.6
20260508021005 5 337 1.6 4.8 0.00 0.00 0.00 93 1019.5
20260508020504 5 345 1.6 4.8 0.00 0.00 0.00 93 1019.5
20260508020004 5 348 1.6 3.2 0.00 0.00 0.00 93 1019.6
20260508015505 5 354 1.6 3.2 0.00 0.00 0.00 93 1019.4
20260508015004 5 356 1.6 3.2 0.00 0.00 0.00 93 1019.4
20260508014525 5 349 0.0 6.4 0.00 0.00 0.00 93 1019.5
20260508014004 5 344 0.0 6.4 0.00 0.00 0.00 94 1019.3
20260508013504 5 350 0.0 4.8 0.00 0.00 0.00 94 1019.5
20260508013004 5 353 0.0 4.8 0.00 0.00 0.00 94 1019.3
20260508012505 5 348 0.0 3.2 0.00 0.00 0.00 94 1019.3
20260508012005 5 347 0.0 1.6 0.00 0.00 0.00 94 1019.3
20260508011505 5 346 0.0 3.2 0.00 0.00 0.00 94 1019.3
20260508011004 5 347 0.0 4.8 0.00 0.00 0.00 94 1019.3
20260508010504 5 350 0.0 4.8 0.00 0.00 0.00 95 1019.1
20260508010005 5 351 0.0 4.8 0.00 0.00 0.00 95 1019.4
20260508005526 5 352 1.6 4.8 0.00 0.00 0.00 95 1019.2
20260508005004 5 353 0.0 3.2 0.00 0.00 0.00 95 1019.3
20260508004525 5 355 0.0 3.2 0.00 0.00 0.00 95 1019.2
20260508004004 5 357 0.0 1.6 0.00 0.00 0.00 95 1019.3
20260508003525 5 358 0.0 1.6 0.00 0.00 0.00 95 1019.2
20260508003005 5 360 0.0 1.6 0.00 0.00 0.00 95 1019.3
20260508002504 5 360 0.0 4.8 0.00 0.00 0.00 95 1019.3
20260508002004 5 359 0.0 4.8 0.00 0.00 0.00 95 1019.5
20260508001504 5 358 0.0 3.2 0.00 0.00 0.00 95 1019.5
20260508001025 5 4 0.0 1.6 0.00 0.00 0.00 96 1019.6
20260508000525 5 6 0.0 1.6 0.00 0.00 0.00 96 1019.5
20260508000005 5 5 0.0 3.2 0.00 0.00 0.00 96 1019.4
20260507235505 5 358 0.0 3.2 0.00 0.00 0.00 97 1019.4
20260507235004 5 353 0.0 1.6 0.00 0.00 0.00 97 1019.4
20260507234504 5 353 0.0 3.2 0.00 0.00 0.00 97 1019.4
20260507234005 5 360 0.0 3.2 0.00 0.00 0.00 97 1019.4
20260507233504 5 6 0.0 3.2 0.00 0.00 0.00 97 1019.3
20260507233025 5 352 0.0 3.2 0.00 0.00 0.00 97 1019.2
20260507232525 4 340 0.0 1.6 0.00 0.00 0.00 98 1019.1
20260507232004 4 341 0.0 3.2 0.00 0.00 0.00 98 1018.9
20260507231504 4 342 1.6 3.2 0.00 0.00 0.00 98 1019.1
20260507231004 4 344 0.0 3.2 0.00 0.00 0.00 98 1019.0
20260507230504 4 344 0.0 3.2 0.00 0.00 0.00 98 1019.1
20260507230025 4 344 0.0 3.2 0.00 0.00 0.00 98 1019.0
20260507225505 4 344 0.0 3.2 0.00 0.00 0.00 98 1019.1
20260507225004 4 344 0.0 3.2 0.00 0.00 0.00 98 1019.0
20260507224505 4 344 0.0 1.6 0.00 0.00 0.00 98 1019.1
20260507224004 3 344 0.0 3.2 0.00 0.00 0.00 98 1019.1
20260507223504 3 344 0.0 3.2 0.00 0.00 0.00 98 1019.2
20260507223025 3 343 0.0 1.6 0.00 0.00 0.00 97 1019.3
20260507222505 3 0 0.0 0.0 0.00 0.00 0.00 97 1019.2
20260507222004 3 0 0.0 0.0 0.00 0.03 0.00 97 1019.3
20260507221505 3 0 0.0 0.0 0.00 0.03 0.00 97 1019.2
20260507221005 3 0 0.0 0.0 0.00 0.03 0.00 97 1019.2
20260507220525 3 343 0.0 1.6 0.00 0.03 0.00 97 1019.3
20260507220006 3 343 0.0 1.6 0.00 0.03 0.00 97 1019.2
20260507215504 3 0 0.0 0.0 0.00 0.03 0.03 97 1019.1
20260507215004 3 0 0.0 0.0 0.00 0.03 0.03 97 1019.3
20260507214505 3 0 0.0 0.0 0.00 0.03 0.03 97 1019.2
20260507214005 3 343 0.0 1.6 0.00 0.03 0.03 97 1019.2
20260507213504 3 343 0.0 1.6 0.00 0.03 0.03 97 1019.1
20260507213026 3 343 0.0 1.6 0.00 0.03 0.03 97 1019.1
20260507212504 4 343 0.0 1.6 0.00 0.03 0.03 96 1019.2
20260507212004 4 0 0.0 0.0 0.00 0.03 0.03 96 1019.0
20260507211504 4 343 0.0 1.6 0.00 0.03 0.03 96 1019.1
20260507211005 4 343 0.0 1.6 0.00 0.03 0.03 96 1019.1
20260507210504 4 344 0.0 3.2 0.00 0.03 0.03 96 1018.8
20260507210005 4 345 0.0 3.2 0.00 0.03 0.03 96 1018.8
20260507205504 4 345 0.0 1.6 0.00 0.03 0.03 96 1018.7
20260507205004 4 345 0.0 1.6 0.00 0.03 0.03 96 1018.6
20260507204505 4 344 0.0 1.6 0.00 0.03 0.03 96 1018.6
20260507204025 4 0 0.0 0.0 0.00 0.03 0.03 96 1018.6
20260507203504 3 344 0.0 3.2 0.00 0.03 0.03 96 1018.5
20260507203004 3 345 0.0 3.2 0.00 0.03 0.03 96 1018.5
20260507202504 3 349 0.0 1.6 0.00 0.03 0.03 96 1018.6
20260507202025 3 355 0.0 1.6 0.00 0.03 0.03 95 1018.5
20260507201505 3 356 0.0 1.6 0.00 0.03 0.03 95 1018.4
20260507201005 3 356 0.0 1.6 0.00 0.03 0.03 95 1018.1
20260507200504 3 356 0.0 1.6 0.00 0.03 0.03 95 1018.1
20260507200004 3 356 0.0 1.6 0.00 0.03 0.03 94 1018.0
20260507195504 3 355 0.0 4.8 0.00 0.03 0.03 94 1017.9
20260507195004 3 353 0.0 4.8 0.00 0.03 0.03 94 1018.0
20260507194504 4 351 0.0 3.2 0.00 0.03 0.03 93 1017.9
20260507194004 4 346 0.0 3.2 0.00 0.03 0.03 93 1017.9
20260507193504 4 345 0.0 3.2 0.00 0.03 0.03 92 1017.6
20260507193005 4 344 0.0 3.2 0.00 0.03 0.03 91 1017.8
20260507192505 4 345 0.0 3.2 0.00 0.03 0.03 91 1017.7
20260507192004 5 344 0.0 3.2 0.00 0.03 0.03 90 1017.7
20260507191505 5 342 0.0 3.2 0.00 0.03 0.03 89 1017.6
20260507191004 5 342 0.0 3.2 0.00 0.03 0.03 88 1017.5
20260507190504 5 344 0.0 3.2 0.00 0.03 0.03 87 1017.7
20260507190005 5 346 0.0 1.6 0.00 0.03 0.03 86 1017.4
20260507185526 5 344 0.0 3.2 0.00 0.03 0.03 86 1017.5
20260507185004 5 343 0.0 3.2 0.00 0.03 0.03 85 1017.5
20260507184504 5 343 0.0 1.6 0.00 0.03 0.03 85 1017.4
20260507184004 5 342 0.0 1.6 0.00 0.05 0.03 84 1017.5
20260507183504 5 342 0.0 3.2 0.00 0.05 0.03 83 1017.5
20260507183005 6 342 0.0 3.2 0.00 0.05 0.03 84 1017.4
20260507182504 6 342 0.0 3.2 0.00 0.05 0.03 83 1017.2
20260507182004 6 342 0.0 1.6 0.00 0.05 0.03 82 1017.3
20260507181505 6 342 0.0 1.6 0.00 0.05 0.03 82 1017.4
20260507181025 6 343 0.0 3.2 0.00 0.05 0.03 81 1017.3
20260507180504 6 345 0.0 3.2 0.00 0.05 0.03 81 1017.2
20260507180005 6 334 0.0 4.8 0.00 0.05 0.03 81 1017.1
20260507175504 6 328 1.6 4.8 0.00 0.05 0.03 81 1017.2
20260507175004 6 327 0.0 1.6 0.00 0.05 0.03 81 1017.1
20260507174504 7 329 0.0 4.8 0.00 0.05 0.03 82 1017.0
20260507174004 7 333 0.0 4.8 0.00 0.05 0.03 80 1017.1
20260507173525 7 342 0.0 3.2 0.00 0.05 0.03 81 1017.0
20260507173004 7 342 0.0 1.6 0.00 0.05 0.03 80 1017.1
20260507172503 7 342 0.0 3.2 0.00 0.05 0.03 79 1017.0
20260507172025 7 342 0.0 3.2 0.00 0.08 0.03 79 1016.7
20260507171504 7 342 0.0 3.2 0.00 0.08 0.03 79 1016.9
20260507171004 7 345 0.0 4.8 0.00 0.08 0.03 79 1016.8
20260507170504 7 350 0.0 4.8 0.00 0.08 0.03 76 1016.8
20260507170026 8 350 0.0 6.4 0.00 0.10 0.03 76 1016.7
20260507165504 8 348 0.0 6.4 0.00 0.10 0.03 77 1016.7
20260507165004 8 347 0.0 3.2 0.00 0.10 0.03 77 1016.6
20260507164526 8 346 0.0 3.2 0.00 0.10 0.03 78 1016.6
20260507164004 8 324 0.0 4.8 0.00 0.10 0.03 77 1016.5
20260507163503 8 317 1.6 4.8 0.00 0.10 0.03 75 1016.9
20260507163005 8 312 1.6 9.7 0.00 0.13 0.03 75 1016.4
20260507162505 8 332 1.6 9.7 0.00 0.13 0.03 77 1016.6
20260507162004 8 340 1.6 9.7 0.00 0.13 0.03 75 1016.6
20260507161526 8 313 1.6 4.8 0.00 0.13 0.03 74 1016.6
20260507161005 8 303 1.6 6.4 0.00 0.13 0.03 76 1016.6
20260507160506 8 324 1.6 6.4 0.00 0.13 0.03 75 1016.7
20260507160004 8 11 1.6 6.4 0.00 0.15 0.03 75 1016.5
20260507155503 8 327 1.6 6.4 0.00 0.15 0.03 76 1016.4
20260507155004 8 303 1.6 6.4 0.00 0.15 0.03 76 1016.4
20260507154505 8 331 1.6 4.8 0.00 0.15 0.03 75 1016.4
20260507154025 8 344 1.6 4.8 0.00 0.15 0.03 75 1016.3
20260507153504 8 332 1.6 9.7 0.00 0.15 0.03 76 1016.3
20260507153004 8 337 1.6 9.7 0.00 0.15 0.03 77 1016.3
20260507152526 8 353 1.6 11.3 0.00 0.15 0.03 76 1016.1
20260507152004 8 9 1.6 11.3 0.00 0.15 0.03 78 1016.4
20260507151504 8 1 1.6 11.3 0.00 0.18 0.03 77 1016.1
20260507151004 8 330 1.6 11.3 0.00 0.18 0.03 76 1016.2
20260507150525 8 2 1.6 11.3 0.00 0.18 0.03 75 1016.3
20260507150004 8 42 3.2 11.3 0.00 0.18 0.03 73 1016.2
20260507145505 9 46 3.2 11.3 0.00 0.18 0.03 71 1016.3
20260507145004 10 20 1.6 6.4 0.00 0.20 0.03 69 1016.0
20260507144505 10 312 1.6 9.7 0.00 0.20 0.03 70 1016.0
20260507144004 10 300 1.6 9.7 0.00 0.23 0.03 72 1016.2
20260507143504 10 291 1.6 6.4 0.00 0.23 0.03 75 1016.0
20260507143004 10 314 1.6 6.4 0.00 0.23 0.03 74 1015.8
20260507142504 10 323 1.6 6.4 0.00 0.23 0.03 73 1015.8
20260507142004 9 327 1.6 9.7 0.00 0.23 0.03 74 1015.8
20260507141524 10 341 1.6 9.7 0.00 0.23 0.03 73 1015.9
20260507141004 10 351 1.6 6.4 0.00 0.25 0.03 74 1015.7
20260507140525 10 344 1.6 9.7 0.00 0.25 0.03 76 1015.8
20260507140006 10 335 1.6 9.7 0.00 0.25 0.03 72 1015.8
20260507135505 9 324 1.6 9.7 0.00 0.28 0.03 78 1015.8
20260507135004 9 325 3.2 12.9 0.00 0.28 0.03 75 1015.9
20260507134503 10 359 1.6 12.9 0.00 0.28 0.03 72 1015.6
20260507134005 10 2 1.6 6.4 0.00 0.30 0.03 72 1015.8
20260507133504 10 355 1.6 11.3 0.00 0.30 0.03 75 1015.9
20260507133005 10 319 3.2 11.3 0.00 0.33 0.03 75 1015.8
20260507132525 10 293 3.2 12.9 0.00 0.36 0.03 73 1015.8
20260507132004 10 313 1.6 14.5 0.00 0.36 0.03 73 1015.7
20260507131505 10 324 1.6 14.5 0.00 0.38 0.03 73 1015.8
20260507131005 10 336 1.6 9.7 0.00 0.38 0.03 72 1015.7
20260507130504 10 336 3.2 12.9 0.00 0.38 0.03 74 1015.4
20260507130005 9 334 3.2 14.5 0.00 0.38 0.03 74 1015.6
20260507125505 9 333 3.2 14.5 0.00 0.38 0.03 73 1015.5
20260507125004 9 340 3.2 14.5 0.00 0.38 0.03 74 1015.4
20260507124524 10 347 1.6 9.7 0.00 0.38 0.03 73 1015.5
20260507124005 10 335 1.6 12.9 0.00 0.38 0.03 74 1015.4
20260507123504 10 319 3.2 12.9 0.00 0.38 0.03 68 1015.5
20260507123003 11 319 1.6 11.3 0.00 0.38 0.03 71 1015.5
20260507122503 11 335 3.2 11.3 0.00 0.38 0.03 70 1015.3
20260507122004 11 323 3.2 17.7 0.00 0.38 0.03 73 1015.2
20260507121503 10 302 1.6 17.7 0.00 0.38 0.03 72 1015.1
20260507121026 10 310 1.6 6.4 0.00 0.38 0.03 72 1015.1
20260507120504 10 316 1.6 9.7 0.00 0.38 0.03 72 1015.1
20260507120024 10 337 3.2 9.7 0.00 0.38 0.03 74 1015.2
20260507115504 10 334 3.2 6.4 0.00 0.38 0.03 72 1014.9
20260507115004 10 317 3.2 11.3 0.00 0.38 0.03 68 1015.1
20260507114503 11 321 1.6 12.9 0.00 0.38 0.03 71 1014.8
20260507114003 11 327 1.6 12.9 0.00 0.38 0.03 73 1014.9
20260507113504 11 343 1.6 11.3 0.00 0.38 0.03 69 1014.8
20260507113004 10 349 3.2 11.3 0.00 0.38 0.03 71 1014.9
20260507112526 10 337 3.2 11.3 0.00 0.41 0.03 74 1014.8
20260507112025 9 312 3.2 14.5 0.00 0.43 0.03 74 1014.7
20260507111504 10 301 3.2 14.5 0.00 0.43 0.03 74 1014.8
20260507111003 10 289 3.2 12.9 0.00 0.43 0.03 73 1014.8
20260507110504 9 302 3.2 12.9 0.00 0.43 0.03 75 1014.8
20260507110025 10 322 1.6 11.3 0.00 0.43 0.03 72 1014.7
20260507105504 10 304 1.6 6.4 0.00 0.43 0.03 76 1014.6
20260507105004 9 314 1.6 9.7 0.00 0.43 0.03 79 1014.6
20260507104504 9 326 3.2 11.3 0.00 0.46 0.03 77 1014.7
20260507104004 8 314 3.2 11.3 0.00 0.48 0.03 77 1014.5
20260507103504 8 296 1.6 6.4 0.00 0.51 0.03 81 1014.6
20260507103004 8 294 1.6 9.7 0.00 0.53 0.03 81 1014.7
20260507102504 8 306 1.6 9.7 0.00 0.56 0.03 79 1014.6
20260507102007 9 316 1.6 9.7 0.00 0.58 0.03 79 1014.4
20260507101503 9 317 1.6 4.8 0.00 0.61 0.03 81 1014.4
20260507101003 8 320 1.6 6.4 0.00 0.69 0.03 84 1014.4
20260507100504 8 328 1.6 9.7 0.00 0.76 0.03 82 1014.3
20260507100004 8 322 3.2 12.9 0.00 0.84 0.03 83 1014.4
20260507095504 8 305 3.2 12.9 0.00 0.89 0.03 80 1014.3
20260507095004 8 289 1.6 6.4 0.00 0.94 0.03 81 1014.3
20260507094524 8 324 1.6 4.8 0.00 0.99 0.03 83 1014.2
20260507094004 8 338 1.6 9.7 0.00 1.09 0.03 82 1014.2
20260507093504 8 336 1.6 11.3 0.00 1.14 0.03 84 1014.2
20260507093005 8 340 1.6 11.3 0.00 1.19 0.03 83 1014.2
20260507092503 8 326 1.6 9.7 0.00 1.30 0.03 85 1014.2
20260507092025 8 330 1.6 6.4 0.00 1.37 0.03 84 1014.1
20260507091503 8 357 3.2 6.4 0.00 1.42 0.03 86 1013.9
20260507091024 7 353 1.6 6.4 0.00 1.47 0.03 83 1014.0
20260507090525 8 346 1.6 11.3 0.00 1.52 0.03 84 1014.0
20260507090025 8 349 1.6 11.3 0.00 1.57 0.03 85 1014.0
20260507085503 7 340 1.6 9.7 0.00 1.63 0.03 83 1013.8
20260507085005 7 336 1.6 11.3 0.00 1.68 0.03 84 1013.8
20260507084525 7 333 1.6 11.3 0.00 1.70 0.03 84 1013.9
20260507084004 7 337 3.2 16.1 0.00 1.75 0.03 83 1013.7
20260507083505 7 341 3.2 16.1 0.00 1.78 0.03 84 1013.8
20260507083005 7 348 1.6 6.4 0.00 1.83 0.03 82 1013.7
20260507082526 7 357 1.6 16.1 0.00 1.85 0.03 85 1013.6
20260507082005 7 2 1.6 16.1 0.00 1.88 0.03 83 1013.7
20260507081504 7 12 1.6 11.3 0.00 1.91 0.03 84 1013.7
20260507081004 7 348 1.6 9.7 0.00 1.93 0.03 85 1013.7
20260507080505 7 328 1.6 9.7 0.00 1.96 0.03 85 1013.5
20260507080006 7 324 1.6 14.5 0.00 1.98 0.03 87 1013.6
20260507075525 7 337 1.6 14.5 0.00 2.03 0.03 87 1013.5
20260507075004 6 343 1.6 11.3 0.00 2.06 0.03 86 1013.4
20260507074505 6 330 1.6 6.4 0.00 2.08 0.03 89 1013.4
20260507074005 6 323 1.6 6.4 0.00 2.11 0.03 89 1013.4
20260507073505 6 308 1.6 6.4 0.00 2.13 0.03 87 1013.3
20260507073005 6 304 1.6 11.3 0.00 2.16 0.03 88 1013.2
20260507072504 6 332 3.2 14.5 0.00 2.21 0.03 88 1013.2
20260507072006 6 351 3.2 14.5 0.00 2.21 0.03 88 1013.2
20260507071504 6 345 1.6 6.4 0.00 2.24 0.03 90 1013.2
20260507071007 6 337 1.6 6.4 0.00 2.24 0.03 90 1013.3
20260507070504 6 342 1.6 6.4 0.00 2.26 0.03 91 1013.1
20260507070026 6 330 1.6 6.4 0.00 2.26 0.03 92 1013.1
20260507065504 6 335 1.6 4.8 0.00 2.26 0.03 91 1013.1
20260507065004 6 351 1.6 4.8 0.00 2.26 0.03 93 1013.0
20260507064505 6 348 1.6 4.8 0.00 2.26 0.03 94 1013.0
20260507064005 6 343 1.6 4.8 0.00 2.26 0.03 94 1013.0
20260507063504 5 350 1.6 4.8 0.00 2.26 0.03 95 1013.0
20260507063025 5 357 1.6 9.7 0.00 2.26 0.03 96 1012.8
20260507062505 5 321 1.6 9.7 0.00 2.26 0.03 96 1012.6
20260507062004 5 285 1.6 9.7 0.00 2.26 0.03 97 1012.5
20260507061505 5 318 1.6 6.4 0.00 2.26 0.03 98 1012.5
20260507061004 5 334 1.6 11.3 0.00 2.29 0.03 99 1012.5
20260507060505 5 330 1.6 11.3 0.00 2.29 0.03 99 1012.7
20260507060006 5 326 1.6 6.4 0.00 2.29 0.03 99 1012.6
20260507055505 5 328 1.6 6.4 0.00 2.29 0.03 99 1012.6
20260507055026 5 328 1.6 4.8 0.00 2.29 0.03 99 1012.5
20260507054526 5 332 1.6 4.8 0.00 2.29 0.03 99 1012.4
20260507054005 5 333 1.6 6.4 0.00 2.29 0.03 99 1012.3
20260507053504 5 331 1.6 6.4 0.00 2.29 0.03 99 1012.1
20260507053005 5 334 1.6 9.7 0.00 2.29 0.03 99 1012.2
20260507052504 5 340 1.6 9.7 0.00 2.29 0.03 99 1012.0
20260507052005 5 339 1.6 20.9 0.00 2.29 0.03 99 1012.1
20260507051505 5 334 1.6 20.9 0.00 2.29 0.03 99 1011.9
20260507051004 5 326 1.6 6.4 0.00 2.29 0.03 99 1011.8
20260507050505 5 319 1.6 4.8 0.00 2.29 0.03 99 1011.8
20260507050005 5 332 1.6 6.4 0.00 2.29 0.03 99 1011.6
20260507045504 5 335 1.6 6.4 0.00 2.29 0.03 99 1011.9
20260507045004 4 328 1.6 6.4 0.00 2.29 0.03 99 1011.8
20260507044525 5 319 1.6 6.4 0.00 2.29 0.03 99 1011.8
20260507044026 4 317 1.6 6.4 0.00 2.29 0.03 99 1011.8
20260507043526 4 330 1.6 4.8 0.00 2.29 0.03 99 1011.7
20260507043004 4 304 1.6 4.8 0.00 2.29 0.03 99 1011.5
20260507042505 4 305 1.6 6.4 0.00 2.29 0.03 99 1011.7
20260507042004 4 333 1.6 9.7 0.00 2.29 0.03 99 1011.6
20260507041504 4 324 1.6 9.7 0.00 2.29 0.03 99 1011.6
20260507041005 4 326 1.6 9.7 0.00 2.29 0.03 99 1011.5
20260507040505 4 321 1.6 9.7 0.00 2.29 0.03 99 1011.3
20260507040005 4 311 0.0 4.8 0.00 2.29 0.03 99 1011.1
20260507035504 4 304 1.6 4.8 0.00 2.29 0.03 99 1011.1
20260507035025 4 285 1.6 6.4 0.00 2.29 0.03 99 1011.1
20260507034504 4 293 1.6 6.4 0.00 2.29 0.03 99 1011.1